Portada
METAR-TAF:

METAR-TAF

Aeropuertos :

Base aérea

Tafraoui, Argelia

latitud: 35-32-33N, longitud: 000-31-56W, altitud: 112 m

Observación

El informe se hizo hace 51 minutos, a las 04:00 UTC
Viento 4 kt del oeste-noroeste
Temperatura 24°C
Humedad 89%
Presión 1013 hPa
Visibilidad: 8000 m
Nubes dispersas a una altura de 3000 ft
Nubes dispersas a una altura de 10000 ft

METAR: DAOL 300400Z 29004KT 8000 SCT030 SCT100 24/22 Q1013

Hora: 05:51 (04:51 UTC)


TAF: falta

Observaciones y pronósticos meteorológicos de más de 4000 aeropuertos (mensajes METAR y TAF).

Los puntos amarillos y rojos representan las estaciones disponibles.

Ponga el ratón en el punto deseado para ver el nombre de la estación.

Haga clic para ver las observaciones y los pronósticos meteorológicos.

Para cambiar el mapa : haga clic en los botones verdes con una cruz de color negro para hacer un zoom, en el botón verde con un guión para alejar o en las flechas verdes para mapas adyacentes.


METAR-TAF: